All Spectrum Aviation - Van Nuys Airport - KVNY

HOME

Condor Squadron KVNY Webcam

Visit our Electronics Store

2018/10/21 11:51 KVNY 211151Z AUTO 35003KT 10SM CLR 16/05 A2990 RMK AO2 SLP115 T01560050 10222 20156 55005
LATEST VAN NUYS ATIS IN MP3!
Older ATIS Recordings

Van Nuys Tower recordings

NEW FEATURE: RECORDINGS WITH SILENCE REMOVED!

All in MP3 format. 1 hour long MP3s for each file, 119.3 file is tower only
scan file is 119.0 HELI, 121.7 GROUND, 120.2 TOWER EAST, 126.6 CLEARANCE, 460.525 and 453.375 OPS

Today (2018/10/21) and Yesterday (2018/10/20)